TimeEDT,TemperatureF,Dew PointF,Humidity,Sea Level PressureIn,VisibilityMPH,Wind Direction,Wind SpeedMPH,Gust SpeedMPH,PrecipitationIn,Events,Conditions,WindDirDegrees,DateUTC
12:51 AM,59.0,57.0,93,29.93,9.0,Calm,Calm,-,N/A,,Clear,0,2012-10-06 04:51:00
1:51 AM,59.0,57.0,93,29.91,9.0,SE,3.5,-,N/A,,Clear,140,2012-10-06 05:51:00
2:51 AM,59.0,57.0,93,29.90,8.0,Calm,Calm,-,N/A,,Clear,0,2012-10-06 06:51:00
3:51 AM,57.0,55.0,93,29.88,5.0,Calm,Calm,-,N/A,,Clear,0,2012-10-06 07:51:00
4:51 AM,55.9,55.0,97,29.88,5.0,Calm,Calm,-,N/A,,Clear,0,2012-10-06 08:51:00
5:51 AM,55.9,55.0,97,29.87,4.0,Calm,Calm,-,N/A,,Clear,0,2012-10-06 09:51:00
6:51 AM,59.0,57.9,96,29.87,3.0,SSW,6.9,-,N/A,,Scattered Clouds,200,2012-10-06 10:51:00
7:24 AM,60.8,59.0,94,29.87,2.0,South,4.6,-,N/A,,Scattered Clouds,190,2012-10-06 11:24:00
7:29 AM,60.8,59.0,94,29.87,0.5,South,4.6,-,N/A,,Scattered Clouds,180,2012-10-06 11:29:00
7:51 AM,60.8,60.8,100,29.87,0.5,SSE,4.6,-,N/A,Fog,Fog,160,2012-10-06 11:51:00
7:53 AM,60.8,60.8,100,29.87,0.5,South,5.8,-,N/A,Fog,Fog,170,2012-10-06 11:53:00
8:06 AM,62.6,62.6,100,29.86,1.0,SSE,4.6,-,N/A,,Scattered Clouds,160,2012-10-06 12:06:00
8:14 AM,62.6,62.6,100,29.86,2.0,SSE,4.6,-,N/A,,Scattered Clouds,160,2012-10-06 12:14:00
8:26 AM,64.4,62.6,94,29.86,3.0,SSE,3.5,-,N/A,,Scattered Clouds,160,2012-10-06 12:26:00
8:51 AM,66.9,63.0,87,29.86,8.0,South,8.1,-,N/A,,Scattered Clouds,190,2012-10-06 12:51:00
9:51 AM,70.0,61.0,73,29.86,10.0,SSW,11.5,-,N/A,,Scattered Clouds,200,2012-10-06 13:51:00
10:51 AM,73.0,61.0,66,29.84,10.0,SSW,13.8,20.7,N/A,,Scattered Clouds,210,2012-10-06 14:51:00
11:51 AM,75.9,60.1,58,29.82,10.0,South,13.8,23.0,N/A,,Mostly Cloudy,190,2012-10-06 15:51:00
12:51 PM,75.9,59.0,56,29.79,10.0,SSW,17.3,26.5,N/A,,Mostly Cloudy,200,2012-10-06 16:51:00
1:51 PM,75.9,57.9,54,29.76,10.0,SSW,18.4,31.1,N/A,,Mostly Cloudy,200,2012-10-06 17:51:00
2:51 PM,75.0,61.0,62,29.75,10.0,SSW,17.3,23.0,N/A,,Mostly Cloudy,200,2012-10-06 18:51:00
3:51 PM,75.2,60.8,61,29.75,10.0,SSW,15.0,28.8,N/A,,Scattered Clouds,210,2012-10-06 19:51:00
4:51 PM,72.0,61.0,68,29.75,10.0,SSW,13.8,-,N/A,,Mostly Cloudy,200,2012-10-06 20:51:00
5:51 PM,70.0,62.1,76,29.76,10.0,SSW,13.8,-,0.00,Rain,Light Rain,200,2012-10-06 21:51:00
6:16 PM,68.0,62.6,83,29.78,2.5,SSW,16.1,21.9,0.04,Rain,Heavy Rain,200,2012-10-06 22:16:00
6:22 PM,66.2,64.4,94,29.77,3.0,SSW,13.8,-,0.06,Rain,Light Rain,200,2012-10-06 22:22:00
6:51 PM,64.4,62.6,94,29.82,6.0,NW,15.0,20.7,N/A,,Light Drizzle,310,2012-10-06 22:51:00
7:10 PM,62.6,55.4,77,29.83,7.0,WNW,11.5,18.4,0.00,,Light Drizzle,290,2012-10-06 23:10:00
7:51 PM,60.1,52.0,75,29.85,10.0,NW,9.2,-,0.00,,Mostly Cloudy,310,2012-10-06 23:51:00
8:51 PM,57.9,51.1,78,29.88,10.0,WNW,10.4,-,N/A,,Scattered Clouds,300,2012-10-07 00:51:00
9:51 PM,57.0,48.9,74,29.92,10.0,WNW,11.5,19.6,N/A,,Partly Cloudy,300,2012-10-07 01:51:00
10:51 PM,55.0,44.1,67,29.94,10.0,NW,8.1,-,N/A,,Partly Cloudy,320,2012-10-07 02:51:00
11:51 PM,53.1,46.0,77,29.96,10.0,WNW,4.6,-,N/A,,Partly Cloudy,300,2012-10-07 03:51:00